Date String (YYYY-MM-DD hh:mm:ss) UTC,Instrument flags,Ambient pressure (hPa),Sample flow (lpm),Bypass flow (lpm),Sample temperature (°C),Ambient temperature (°C),ASC tube jacket temperature (°C),LED temperature (°C),Box temperature (°C),Sample RH (%),Span deviation,Mass concentration (μg/m³),Mass concentration (μg/m³),Mass concentration (μg/m³)
DateTimeUTC,F1_M11,P_M11,Q1_M11,Q2_M11,T1_M11,T2_M11,T3_M11,T4_M11,T5_M11,U1_M11,ZSPAN_M11,X0_M11,X2_M11,X1_M11
2022-11-06 00:00:00,,0810.3,4.99,0.00,25.3,23.9,00.0,34.1,27.2,13.5,0000.0,0001.87,0000.50,0000.31
2022-11-06 00:01:00,,0810.4,4.99,0.00,25.3,23.8,00.0,34.1,27.2,13.5,0000.0,0002.25,0000.54,0000.31
2022-11-06 00:02:00,,0810.4,5.00,0.00,25.3,23.8,00.0,34.1,27.2,13.4,0000.0,0002.35,0000.54,0000.31
2022-11-06 00:03:00,,0810.5,5.00,0.00,25.3,23.9,00.0,34.1,27.2,13.4,0000.0,0002.37,0000.55,0000.31
2022-11-06 00:04:00,,0810.4,5.01,0.00,25.3,23.9,00.0,34.1,27.2,13.3,0000.0,0002.75,0000.55,0000.31
2022-11-06 00:05:00,,0810.5,5.00,0.00,25.3,23.8,00.0,34.1,27.2,13.3,0000.0,0002.84,0000.53,0000.32
2022-11-06 00:06:00,,0810.6,5.00,0.00,25.3,23.8,00.0,34.1,27.2,13.4,0000.0,0002.78,0000.50,0000.31
2022-11-06 00:07:00,,0810.9,5.01,0.00,25.3,23.8,00.0,34.1,27.2,13.5,0000.0,0002.79,0000.50,0000.31
2022-11-06 00:08:00,,0811.0,5.00,0.00,25.3,23.8,00.0,34.1,27.2,13.3,0000.0,0002.65,0000.48,0000.32
2022-11-06 00:09:00,,0811.1,5.01,0.00,25.3,23.7,00.0,34.1,27.2,13.3,0000.0,0002.61,0000.49,0000.32
2022-11-06 00:10:00,,0811.2,5.00,0.00,25.3,23.8,00.0,34.0,27.2,13.3,0000.0,0002.33,0000.49,0000.32
2022-11-06 00:11:00,,0811.2,5.00,0.00,25.3,23.8,00.0,34.0,27.2,13.4,0000.0,0001.95,0000.48,0000.32
2022-11-06 00:12:00,,0811.0,4.99,0.00,25.3,23.8,00.0,34.0,27.1,13.3,0000.0,0001.55,0000.46,0000.32
2022-11-06 00:13:00,,0811.0,5.00,0.00,25.3,23.8,00.0,34.0,27.2,13.3,0000.0,0001.43,0000.45,0000.32
2022-11-06 00:14:00,,0810.8,5.00,0.00,25.3,23.9,00.0,34.0,27.2,13.2,0000.0,0001.40,0000.45,0000.33
2022-11-06 00:15:00,,0811.0,5.01,0.00,25.3,23.9,00.0,34.0,27.2,13.2,0000.0,0000.88,0000.42,0000.32
2022-11-06 00:16:00,,0811.1,5.00,0.00,25.3,23.9,00.0,34.0,27.2,13.3,0000.0,0000.75,0000.40,0000.32
2022-11-06 00:17:00,,0811.3,5.01,0.00,25.3,23.9,00.0,34.0,27.2,13.2,0000.0,0001.19,0000.39,0000.32
2022-11-06 00:18:00,,0811.7,5.00,0.00,25.3,23.9,00.0,34.0,27.2,13.3,0000.0,0002.68,0000.39,0000.31
2022-11-06 00:19:00,,0811.2,4.99,0.00,25.3,23.9,00.0,34.1,27.2,13.3,0000.0,0002.83,0000.43,0000.31
2022-11-06 00:20:00,,0811.0,4.99,0.00,25.3,23.8,00.0,34.1,27.1,13.1,0000.0,0002.88,0000.45,0000.31
2022-11-06 00:21:00,,0811.1,5.01,0.00,25.3,23.7,00.0,34.1,27.1,13.2,0000.0,0002.90,0000.46,0000.31
2022-11-06 00:22:00,,0811.1,5.01,0.00,25.3,23.7,00.0,34.0,27.1,13.3,0000.0,0002.89,0000.45,0000.31
2022-11-06 00:23:00,,0811.0,5.01,0.00,25.2,23.6,00.0,34.0,27.1,13.3,0000.0,0002.83,0000.42,0000.31
2022-11-06 00:24:00,,0811.1,4.99,0.00,25.2,23.6,00.0,34.0,27.1,13.3,0000.0,0002.91,0000.42,0000.31
2022-11-06 00:25:00,,0811.2,5.00,0.00,25.2,23.5,00.0,34.0,27.0,13.3,0000.0,0002.92,0000.42,0000.30
2022-11-06 00:26:00,,0811.1,4.99,0.00,25.2,23.4,00.0,34.0,27.0,13.4,0000.0,0002.92,0000.42,0000.30
2022-11-06 00:27:00,,0811.1,5.00,0.00,25.2,23.4,00.0,34.0,27.0,13.4,0000.0,0002.84,0000.43,0000.31
2022-11-06 00:28:00,,0811.2,5.00,0.00,25.2,23.5,00.0,34.0,27.0,13.4,0000.0,0002.33,0000.48,0000.32
2022-11-06 00:29:00,,0811.2,5.00,0.00,25.2,23.6,00.0,34.0,27.0,13.5,0000.0,0000.94,0000.50,0000.33
2022-11-06 00:30:00,,0811.1,5.00,0.00,25.1,23.6,00.0,34.0,27.0,13.4,0000.0,0000.87,0000.47,0000.33
2022-11-06 00:31:00,,0811.2,5.01,0.00,25.1,23.5,00.0,34.0,26.9,13.4,0000.0,0000.88,0000.46,0000.33
2022-11-06 00:32:00,,0811.3,5.00,0.00,25.1,23.5,00.0,34.0,26.9,13.6,0000.0,0000.99,0000.50,0000.33
2022-11-06 00:33:00,,0811.3,5.00,0.00,25.1,23.6,00.0,34.0,26.9,13.5,0000.0,0001.16,0000.53,0000.33
2022-11-06 00:34:00,,0811.3,5.00,0.00,25.1,23.6,00.0,34.0,26.9,13.5,0000.0,0001.31,0000.54,0000.33
2022-11-06 00:35:00,,0811.3,5.00,0.00,25.1,23.7,00.0,34.0,27.0,13.5,0000.0,0001.26,0000.53,0000.33
2022-11-06 00:36:00,,0811.1,5.00,0.00,25.1,23.7,00.0,34.0,27.0,13.4,0000.0,0001.27,0000.54,0000.33
2022-11-06 00:37:00,,0811.2,4.99,0.00,25.1,23.7,00.0,34.0,27.0,13.5,0000.0,0001.33,0000.56,0000.34
2022-11-06 00:38:00,,0811.2,5.00,0.00,25.1,23.7,00.0,34.0,27.0,13.5,0000.0,0001.34,0000.57,0000.34
2022-11-06 00:39:00,,0811.1,5.01,0.00,25.1,23.7,00.0,34.0,27.0,13.4,0000.0,0001.28,0000.54,0000.34
2022-11-06 00:40:00,,0811.2,5.00,0.00,25.1,23.7,00.0,34.0,27.0,13.4,0000.0,0001.30,0000.55,0000.34
2022-11-06 00:41:00,,0811.3,5.00,0.00,25.1,23.7,00.0,34.0,27.0,13.4,0000.0,0001.28,0000.57,0000.35
2022-11-06 00:42:00,,0811.1,5.00,0.00,25.1,23.6,00.0,33.9,26.9,13.4,0000.0,0001.32,0000.59,0000.36
2022-11-06 00:43:00,,0810.8,5.00,0.00,25.1,23.6,00.0,33.9,26.9,13.4,0000.0,0001.25,0000.57,0000.36
2022-11-06 00:44:00,,0810.8,5.00,0.00,25.1,23.6,00.0,33.9,26.9,13.4,0000.0,0001.37,0000.55,0000.37
2022-11-06 00:45:00,,0811.2,5.00,0.00,25.1,23.6,00.0,33.9,26.9,13.3,0000.0,0001.52,0000.54,0000.38
2022-11-06 00:46:00,,0811.5,5.00,0.00,25.1,23.6,00.0,33.9,26.9,13.4,0000.0,0001.48,0000.54,0000.38
2022-11-06 00:47:00,,0811.5,5.00,0.00,25.1,23.5,00.0,33.9,26.8,13.5,0000.0,0001.48,0000.55,0000.39
2022-11-06 00:48:00,,0811.4,4.99,0.00,25.0,23.4,00.0,33.9,26.8,13.5,0000.0,0001.44,0000.53,0000.38
2022-11-06 00:49:00,,0811.4,4.99,0.00,25.0,23.4,00.0,33.9,26.8,13.5,0000.0,0001.46,0000.54,0000.38
2022-11-06 00:50:00,,0811.1,4.99,0.00,25.0,23.5,00.0,33.9,26.8,13.5,0000.0,0001.44,0000.53,0000.38
2022-11-06 00:51:00,,0811.1,5.00,0.00,25.0,23.5,00.0,33.9,26.9,13.4,0000.0,0001.52,0000.50,0000.37
2022-11-06 00:52:00,,0811.4,5.01,0.00,25.0,23.5,00.0,33.9,26.9,13.5,0000.0,0001.68,0000.50,0000.37
2022-11-06 00:53:00,,0811.5,5.01,0.00,25.0,23.5,00.0,33.8,26.9,13.4,0000.0,0001.67,0000.48,0000.36
2022-11-06 00:54:00,,0811.4,5.00,0.00,25.0,23.5,00.0,33.8,26.9,13.4,0000.0,0001.69,0000.47,0000.36
2022-11-06 00:55:00,,0811.4,4.99,0.00,25.0,23.6,00.0,33.8,26.9,13.4,0000.0,0001.39,0000.48,0000.36
2022-11-06 00:56:00,,0811.5,5.01,0.00,25.0,23.6,00.0,33.8,26.9,13.5,0000.0,0001.15,0000.48,0000.35
2022-11-06 00:57:00,,0811.5,5.00,0.00,25.0,23.6,00.0,33.8,26.9,13.6,0000.0,0001.20,0000.50,0000.35
2022-11-06 00:58:00,,0811.5,4.98,0.00,25.0,23.7,00.0,33.8,26.9,13.6,0000.0,0001.54,0000.49,0000.35
2022-11-06 00:59:00,,0811.5,5.00,0.00,25.1,23.7,00.0,33.8,27.0,13.5,0000.0,0001.93,0000.50,0000.36
